When you browse on this site, cookies collect data to enhance your experience and personalize the content and advertising you see.
Visit our Privacy Policy to learn more. By continuing to use the site, you agree to this use of cookies and data.
  • En España
  • Lista de países
  • Para 7 días
  • Temperatura del agua
  • Mapa Satelital
  • El tiempo en el mapa
  • Informadores
  • user-avatar
    Iniciar sesión

    Tiempo cada hora Maduraj

    Hoy, 18 Febrero, Lunes

    Tiempo Temperatura Precipitaciones Viento Presión Humedad
    00:00 +29°C° 0 mm 2 mps 746 mmHg 78%
    01:00 +29°C° 0 mm 2 mps 745 mmHg 80%
    02:00 +28°C° 0 mm 2 mps 745 mmHg 82%
    03:00 +28°C° 0 mm 1 mps 745 mmHg 84%
    04:00 +28°C° 0 mm 1 mps 745 mmHg 86%
    05:00 +25°C° 0 mm 0 mps 745 mmHg 87%
    06:00 +26°C° 0.2 mm 0 mps 746 mmHg 82%
    07:00 +27°C° 0.2 mm 0 mps 746 mmHg 78%
    08:00 +28°C° 0.2 mm 0 mps 747 mmHg 73%
    09:00 +31°C° 0 mm 1 mps 747 mmHg 65%
    10:00 +33°C° 0 mm 1 mps 747 mmHg 58%
    11:00 +35°C° 0 mm 1 mps 747 mmHg 47%
    12:00 +35°C° 0 mm 1 mps 746 mmHg 46%
    13:00 +37°C° 0 mm 2 mps 745 mmHg 45%
    14:00 +37°C° 0 mm 2 mps 745 mmHg 44%
    15:00 +36°C° 0 mm 2 mps 744 mmHg 46%
    16:00 +36°C° 0 mm 3 mps 744 mmHg 48%
    17:00 +36°C° 0 mm 3 mps 743 mmHg 49%
    18:00 +35°C° 0.1 mm 3 mps 744 mmHg 53%
    19:00 +34°C° 0.1 mm 4 mps 744 mmHg 56%
    20:00 +33°C° 0.1 mm 4 mps 745 mmHg 60%
    21:00 +32°C° 0 mm 4 mps 745 mmHg 64%
    22:00 +30°C° 0 mm 3 mps 745 mmHg 67%
    23:00 +29°C° 0 mm 2 mps 746 mmHg 71%

    Mañana, 19 Febrero, Martes

    Tiempo Temperatura Precipitaciones Viento Presión Humedad
    00:00 +29°C° 0 mm 2 mps 745 mmHg 73%
    01:00 +29°C° 0 mm 1 mps 745 mmHg 76%
    02:00 +28°C° 0 mm 1 mps 745 mmHg 78%
    03:00 +28°C° 0 mm 1 mps 745 mmHg 80%
    04:00 +28°C° 0 mm 1 mps 745 mmHg 81%
    05:00 +26°C° 0 mm 0 mps 745 mmHg 83%
    06:00 +26°C° 0 mm 0 mps 745 mmHg 79%
    07:00 +29°C° 0 mm 1 mps 746 mmHg 75%
    08:00 +30°C° 0 mm 1 mps 747 mmHg 71%
    09:00 +31°C° 0 mm 1 mps 747 mmHg 64%
    10:00 +32°C° 0 mm 2 mps 747 mmHg 58%
    11:00 +35°C° 0 mm 2 mps 747 mmHg 51%
    12:00 +35°C° 0 mm 3 mps 746 mmHg 49%
    13:00 +36°C° 0 mm 3 mps 746 mmHg 48%
    14:00 +36°C° 0 mm 3 mps 745 mmHg 46%
    15:00 +36°C° 0 mm 3 mps 745 mmHg 46%
    16:00 +36°C° 0 mm 3 mps 745 mmHg 46%
    17:00 +35°C° 0 mm 3 mps 745 mmHg 47%
    18:00 +34°C° 0 mm 3 mps 746 mmHg 50%
    19:00 +33°C° 0 mm 4 mps 746 mmHg 54%
    20:00 +32°C° 0 mm 4 mps 747 mmHg 57%
    21:00 +30°C° 0 mm 4 mps 747 mmHg 63%
    22:00 +29°C° 0 mm 3 mps 748 mmHg 68%
    23:00 +28°C° 0 mm 3 mps 748 mmHg 74%

    Pasado mañana, 20 Febrero, Miércoles

    Tiempo Temperatura Precipitaciones Viento Presión Humedad
    00:00 +28°C° 0 mm 3 mps 748 mmHg 77%
    01:00 +28°C° 0 mm 2 mps 747 mmHg 80%
    02:00 +27°C° 0 mm 2 mps 747 mmHg 83%
    03:00 +27°C° 0 mm 2 mps 747 mmHg 85%
    04:00 +27°C° 0 mm 2 mps 747 mmHg 86%
    05:00 +26°C° 0 mm 2 mps 747 mmHg 88%
    06:00 +27°C° 0 mm 3 mps 748 mmHg 82%
    07:00 +28°C° 0 mm 3 mps 748 mmHg 77%
    08:00 +29°C° 0 mm 4 mps 749 mmHg 71%
    09:00 +30°C° 0 mm 4 mps 749 mmHg 63%
    10:00 +32°C° 0 mm 4 mps 749 mmHg 56%
    11:00 +34°C° 0 mm 5 mps 749 mmHg 48%
    12:00 +34°C° 0 mm 5 mps 748 mmHg 45%
    13:00 +35°C° 0 mm 5 mps 747 mmHg 42%
    14:00 +36°C° 0 mm 5 mps 747 mmHg 40%
    15:00 +35°C° 0 mm 5 mps 746 mmHg 41%
    16:00 +35°C° 0 mm 5 mps 746 mmHg 42%
    17:00 +34°C° 0 mm 5 mps 746 mmHg 43%
    18:00 +33°C° 0 mm 4 mps 747 mmHg 49%
    19:00 +32°C° 0 mm 4 mps 748 mmHg 55%
    20:00 +29°C° 0 mm 4 mps 749 mmHg 60%
    21:00 +29°C° 0 mm 4 mps 749 mmHg 65%
    22:00 +28°C° 0 mm 3 mps 750 mmHg 69%
    23:00 +27°C° 0 mm 3 mps 750 mmHg 74%

    21 Febrero, Jueves

    Tiempo Temperatura Precipitaciones Viento Presión Humedad
    00:00 +27°C° 0 mm 3 mps 749 mmHg 77%
    01:00 +26°C° 0 mm 3 mps 749 mmHg 80%
    02:00 +26°C° 0 mm 3 mps 748 mmHg 83%
    03:00 +25°C° 0 mm 2 mps 748 mmHg 84%
    04:00 +25°C° 0 mm 2 mps 748 mmHg 86%
    05:00 +25°C° 0 mm 2 mps 748 mmHg 88%
    06:00 +26°C° 0 mm 3 mps 749 mmHg 83%
    07:00 +27°C° 0 mm 3 mps 750 mmHg 77%
    08:00 +28°C° 0 mm 4 mps 750 mmHg 72%
    09:00 +29°C° 0 mm 4 mps 750 mmHg 65%
    10:00 +30°C° 0 mm 4 mps 750 mmHg 58%
    11:00 +33°C° 0 mm 5 mps 750 mmHg 51%
    12:00 +34°C° 0 mm 5 mps 749 mmHg 46%
    13:00 +35°C° 0 mm 5 mps 748 mmHg 42%
    14:00 +36°C° 0 mm 5 mps 747 mmHg 37%
    15:00 +35°C° 0 mm 5 mps 747 mmHg 37%
    16:00 +35°C° 0 mm 5 mps 747 mmHg 38%
    17:00 +35°C° 0 mm 5 mps 747 mmHg 38%
    18:00 +33°C° 0 mm 4 mps 747 mmHg 42%
    19:00 +32°C° 0 mm 4 mps 748 mmHg 47%
    20:00 +30°C° 0 mm 4 mps 749 mmHg 52%
    21:00 +29°C° 0 mm 4 mps 749 mmHg 58%
    22:00 +28°C° 0 mm 4 mps 749 mmHg 64%
    23:00 +27°C° 0 mm 4 mps 749 mmHg 70%

    22 Febrero, Viernes

    Tiempo Temperatura Precipitaciones Viento Presión Humedad
    00:00 +26°C° 0 mm 3 mps 749 mmHg 74%
    01:00 +25°C° 0 mm 3 mps 748 mmHg 78%
    02:00 +25°C° 0 mm 3 mps 747 mmHg 82%
    03:00 +24°C° 0 mm 3 mps 747 mmHg 84%
    04:00 +24°C° 0 mm 2 mps 747 mmHg 86%
    05:00 +24°C° 0 mm 2 mps 747 mmHg 88%
    06:00 +25°C° 0 mm 3 mps 748 mmHg 83%
    07:00 +26°C° 0 mm 3 mps 749 mmHg 78%
    08:00 +27°C° 0 mm 3 mps 749 mmHg 73%
    09:00 +29°C° 0 mm 4 mps 749 mmHg 62%
    10:00 +32°C° 0 mm 4 mps 749 mmHg 52%
    11:00 +34°C° 0 mm 4 mps 749 mmHg 41%
    12:00 +35°C° 0 mm 4 mps 748 mmHg 37%
    13:00 +36°C° 0 mm 4 mps 747 mmHg 33%
    14:00 +37°C° 0 mm 4 mps 746 mmHg 28%
    15:00 +36°C° 0 mm 5 mps 746 mmHg 30%
    16:00 +36°C° 0 mm 5 mps 746 mmHg 31%
    17:00 +36°C° 0 mm 5 mps 745 mmHg 32%
    18:00 +34°C° 0 mm 5 mps 746 mmHg 40%
    19:00 +32°C° 0 mm 5 mps 747 mmHg 48%
    20:00 +29°C° 0 mm 5 mps 748 mmHg 56%
    21:00 +28°C° 0 mm 4 mps 748 mmHg 60%
    22:00 +27°C° 0 mm 4 mps 748 mmHg 64%
    23:00 +27°C° 0 mm 3 mps 748 mmHg 68%

    23 Febrero, Sábado

    Tiempo Temperatura Precipitaciones Viento Presión Humedad
    00:00 +26°C° 0 mm 3 mps 748 mmHg 71%
    01:00 +25°C° 0 mm 2 mps 747 mmHg 74%
    02:00 +24°C° 0 mm 2 mps 746 mmHg 78%
    03:00 +24°C° 0 mm 2 mps 746 mmHg 79%
    04:00 +24°C° 0 mm 2 mps 747 mmHg 81%
    05:00 +23°C° 0 mm 2 mps 747 mmHg 82%
    06:00 +24°C° 0 mm 2 mps 747 mmHg 76%
    07:00 +26°C° 0 mm 3 mps 748 mmHg 70%
    08:00 +27°C° 0 mm 3 mps 748 mmHg 64%
    09:00 +29°C° 0 mm 3 mps 748 mmHg 54%
    10:00 +31°C° 0 mm 3 mps 748 mmHg 44%
    11:00 +34°C° 0 mm 4 mps 747 mmHg 34%
    12:00 +35°C° 0 mm 4 mps 747 mmHg 30%
    13:00 +36°C° 0 mm 4 mps 746 mmHg 27%
    14:00 +37°C° 0 mm 4 mps 745 mmHg 23%
    15:00 +37°C° 0 mm 4 mps 745 mmHg 24%
    16:00 +37°C° 0 mm 4 mps 745 mmHg 25%
    17:00 +36°C° 0 mm 4 mps 745 mmHg 25%
    18:00 +34°C° 0 mm 4 mps 745 mmHg 33%
    19:00 +32°C° 0 mm 4 mps 746 mmHg 41%
    20:00 +29°C° 0 mm 4 mps 747 mmHg 49%
    21:00 +28°C° 0 mm 3 mps 747 mmHg 55%
    22:00 +27°C° 0 mm 3 mps 747 mmHg 61%
    23:00 +26°C° 0 mm 2 mps 747 mmHg 66%
    Mostrar más